User: anonymous   Login
Location: Corcelles
(46.1547°N, 4.7234°E)
Time: 17:19:25
(UTC+00:00)
Language:

Meteor 1-5 Rocket - Orbit

View from above orbital plane
View from above orbital plane
View from above satellite
View from above satellite

Ground track
Ground track

The orbit data is extracted from the following two-line orbital elements,

1  4420U 70047B   20270.89890587 +.00000125 +00000-0 +58526-4 0  9991
2  4420 081.2284 241.5480 0088495 083.0306 278.0921 14.12082400587118
Epoch (UTC): 26 September 2020 21:34:25
Eccentricity: 0.0088495
inclination: 81.2284°
perigee height: 788 km
apogee height: 916 km
right ascension of ascending node: 241.5480°
argument of perigee: 83.0306°
revolutions per day: 14.12082400
mean anomaly at epoch: 278.0921°
orbit number at epoch: 58711

The dashed part of the orbit path shows where the satellite is in the earth's shadow,  

DLR